This is the latest recevied weather packets stored in our database for station/object KR0L-13. If no packets are shown the sender has not sent any weather packets the latest 1 day(s).
| Time | Temp. | Humidity | Pressure | Rain* | Wind** | Luminosity | Snow |
|---|---|---|---|---|---|---|---|
| 1777992632 | 11.11° C | 66% | 1011 hPa | 0 mm | 2.68 m/s, 338° | - | - |
| 1777992020 | 10.56° C | 68% | 1011 hPa | 0 mm | 2.24 m/s, 338° | - | - |
| 1777991420 | 10.56° C | 67% | 1010.9 hPa | 0 mm | 4.92 m/s, 338° | - | - |
| 1777990820 | 10.56° C | 68% | 1010.8 hPa | 0 mm | 3.58 m/s, 338° | - | - |
| 1777990222 | 10.56° C | 68% | 1010.6 hPa | 0 mm | 2.68 m/s, 338° | - | - |
| 1777989622 | 10.56° C | 67% | 1010.5 hPa | 0 mm | 3.13 m/s, 338° | - | - |
| 1777989022 | 10.56° C | 67% | 1010.4 hPa | 0 mm | 3.13 m/s, 338° | - | - |
| 1777988422 | 10.56° C | 65% | 1010.3 hPa | 0 mm | 3.13 m/s, 338° | - | - |
| 1777987832 | 10.56° C | 65% | 1009.7 hPa | 0 mm | 3.58 m/s, 0° | - | - |
| 1777987222 | 10.56° C | 65% | 1009.9 hPa | 0 mm | 3.58 m/s, 0° | - | - |
| 1777986622 | 10.56° C | 65% | 1009.7 hPa | 0 mm | 2.68 m/s, 338° | - | - |
| 1777986022 | 10.56° C | 65% | 1009.7 hPa | 0 mm | 3.58 m/s, 338° | - | - |
| 1777985422 | 10.56° C | 64% | 1009.3 hPa | 0 mm | 4.92 m/s, 338° | - | - |
| 1777984822 | 10.56° C | 62% | 1009.2 hPa | 0 mm | 4.47 m/s, 338° | - | - |
| 1777984222 | 10.56° C | 61% | 1009.3 hPa | 0 mm | 4.92 m/s, 0° | - | - |
| 1777983620 | 10.56° C | 62% | 1009.4 hPa | 0 mm | 3.13 m/s, 338° | - | - |
| 1777983022 | 10.56° C | 62% | 1009.1 hPa | 0 mm | 4.02 m/s, 338° | - | - |
| 1777982422 | 11.11° C | 58% | 1009.4 hPa | 0 mm | 4.02 m/s, 338° | - | - |
| 1777981822 | 11.11° C | 56% | 1009.5 hPa | 0 mm | 4.02 m/s, 338° | - | - |
| 1777981222 | 11.11° C | 55% | 1009.2 hPa | 0 mm | 4.02 m/s, 338° | - | - |
| 1777980622 | 11.11° C | 54% | 1008.9 hPa | 0 mm | 4.02 m/s, 338° | - | - |
| 1777980022 | 11.11° C | 54% | 1008.6 hPa | 0 mm | 4.47 m/s, 338° | - | - |
| 1777979422 | 11.11° C | 54% | 1008.5 hPa | 0 mm | 4.47 m/s, 338° | - | - |
| 1777978822 | 11.11° C | 54% | 1007.7 hPa | 0 mm | 5.36 m/s, 338° | - | - |
| 1777978222 | 11.11° C | 53% | 1007.3 hPa | 0 mm | 6.26 m/s, 338° | - | - |
* Rain latest hour (hover to see other rain measurements)
** Current wind speed in m/s (hover to see current wind gust speed)